This demonstration page uses our WeatherBlox Daily Observations layout. Learn more.

39.51506, -84.39828

Hourly Observations for October 21, 2019

Temp ( °F °C ) Dew Point ( °F °C ) Humidity (%) Winds ( mph kmh ) Pressure ( in mb ) Visibility ( mi km ) Precip ( " mm )
12:15 am 00:15 Clear 51 10.8 51 10.4 97 97 Calm 29.97 1015 10 16.09344 N/A
12:35 am 00:35 Clear 52 11.1 51 10.6 97 97 Calm 29.97 1015 10 16.09344 N/A
12:55 am 00:55 Clear 52 11.1 51 10.6 97 97 Calm 29.97 1015 7 11.265408 N/A
1:15 am 01:15 Mostly Cloudy with Mist and Fog 52 10.9 51 10.6 98 98 Calm 29.97 1015 1 1.609344 N/A
1:35 am 01:35 Clear with Mist and Fog 52 11 52 11 100 100 Calm 29.94 1014 7 11.265408 N/A
1:55 am 01:55 Clear with Mist and Fog 50 10.1 50 9.8 98 98 Calm 29.94 1014 5 8.04672 N/A
2:15 am 02:15 Clear with Mist and Fog 50 9.8 49 9.6 99 99 Calm 29.94 1014 2.5 4.02336 N/A
2:35 am 02:35 Clear with Mist and Fog 50 10.2 50 10 99 99 Calm 29.94 1014 4 6.437376 N/A
2:55 am 02:55 Mostly Cloudy with Mist and Fog 49 9.6 49 9.4 99 99 Calm 29.94 1014 1.5 2.414016 N/A
3:15 am 03:15 Clear with Mist and Fog 52 11.1 52 11 99 99 Calm 29.94 1014 5 8.04672 N/A
3:35 am 03:35 Partly Cloudy with Mist and Fog 50 10.1 50 10 99 99 Calm 29.91 1013 2.5 4.02336 N/A
3:55 am 03:55 Clear with Mist and Fog 51 10.5 51 10.4 99 99 Calm 29.91 1013 1.75 2.816352 N/A
4:15 am 04:15 Partly Cloudy with Mist and Fog 51 10.3 50 10.2 99 99 Calm 29.91 1013 1 1.609344 N/A
4:35 am 04:35 Mostly Cloudy with Mist and Fog 50 10.2 50 10.2 100 100 Calm 29.91 1013 2.5 4.02336 N/A
4:55 am 04:55 Mostly Cloudy with Mist and Fog 50 10 50 9.9 99 99 Calm 29.91 1013 2.5 4.02336 N/A
5:15 am 05:15 Mostly Cloudy with Mist and Fog 50 9.9 50 9.8 99 99 Calm 29.91 1013 1 1.609344 N/A
5:35 am 05:35 Cloudy with Mist and Fog 54 12 52 11 94 94 SSE 7 11 29.91 1013 7 11.265408 N/A
5:55 am 05:55 Cloudy with Mist and Fog 56 13.5 56 13.5 100 100 SE 8 13 29.91 1013 2.5 4.02336 N/A
6:15 am 06:15 Cloudy 57 13.8 57 13.7 99 99 ESE 3 6 29.91 1013 7 11.265408 N/A
6:35 am 06:35 Cloudy 57 14 57 13.8 99 99 SE 5 7 29.91 1013 10 16.09344 N/A
6:55 am 06:55 Cloudy with Mist and Fog 58 14.4 57 14 97 97 SE 6 9 29.88 1012 5 8.04672 N/A
7:15 am 07:15 Mostly Cloudy with Mist and Fog 58 14.4 57 13.7 96 96 SSE 8 13 29.88 1012 5 8.04672 N/A
7:35 am 07:35 Mostly Cloudy 58 14.5 56 13.6 94 94 S 6 9 29.88 1012 7 11.265408 N/A
7:55 am 07:55 Mostly Cloudy 58 14.4 56 13.4 94 94 SE 7 11 29.85 1011 10 16.09344 N/A
8:15 am 08:15 Partly Cloudy 58 14.5 56 13.5 94 94 SE 8 13 29.85 1011 10 16.09344 N/A
8:35 am 08:35 Mostly Cloudy 59 14.9 56 13.6 92 92 SE 7 11 29.85 1011 10 16.09344 N/A
8:55 am 08:55 Partly Cloudy 59 15.2 57 13.8 91 91 SE 9 15 29.85 1011 10 16.09344 N/A
9:15 am 09:15 Sunny 60 15.7 57 13.8 89 89 SE 13 20 29.85 1011 10 16.09344 N/A
9:35 am 09:35 Sunny 61 16 57 13.9 87 87 SE 9 15 29.83 1010 10 16.09344 N/A
9:55 am 09:55 Sunny 61 16.3 57 13.9 86 86 SSE 10 17 29.83 1010 10 16.09344 N/A
10:15 am 10:15 Sunny 62 16.5 57 13.9 85 85 SSE 12 19 29.83 1010 10 16.09344 N/A
10:35 am 10:35 Sunny 62 16.4 57 13.8 85 85 SE 12 19 29.83 1010 10 16.09344 N/A
10:55 am 10:55 Mostly Cloudy 63 17.1 57 14 82 82 undefined N/A N/A 10 16.09344 N/A
11:15 am 11:15 undefined N/A N/A N/A undefined N/A N/A N/A N/A
11:35 am 11:35 undefined N/A N/A N/A undefined N/A N/A N/A N/A
11:55 am 11:55 undefined N/A N/A N/A undefined N/A N/A N/A N/A
12:15 pm 12:15 undefined N/A N/A N/A undefined N/A N/A N/A N/A
12:35 pm 12:35 undefined N/A N/A N/A undefined N/A N/A N/A N/A
12:55 pm 12:55 undefined N/A N/A N/A undefined N/A N/A N/A N/A
1:15 pm 13:15 undefined N/A N/A N/A undefined N/A N/A N/A N/A
1:35 pm 13:35 Partly Cloudy with Light Rain 64 17.6 60 15.7 89 89 Calm 29.8 1009 10 16.09344 N/A
1:55 pm 13:55 Mostly Cloudy 65 18.5 62 16.8 90 90 SE 5 7 29.77 1008 10 16.09344 N/A
2:15 pm 14:15 Cloudy 67 19.3 62 16.5 84 84 SSE 6 9 29.74 1007 10 16.09344 N/A
2:35 pm 14:35 Mostly Cloudy 68 19.8 60 15.7 77 77 S 12 19 29.74 1007 10 16.09344 N/A
2:55 pm 14:55 Partly Cloudy 69 20.5 60 15.8 75 75 S 14 22 29.74 1007 10 16.09344 N/A
3:15 pm 15:15 Partly Cloudy 70 21 60 15.6 71 71 S 10 17 29.74 1007 10 16.09344 N/A
3:35 pm 15:35 Partly Cloudy 72 22.3 61 16 68 68 S 13 20 29.74 1007 10 16.09344 N/A
3:55 pm 15:55 Cloudy 73 22.5 60 15.7 66 66 S 12 19 29.71 1006 10 16.09344 N/A
4:15 pm 16:15 Cloudy 74 23.1 60 15.6 63 63 S 20 31 29.71 1006 10 16.09344 N/A
4:35 pm 16:35 Cloudy 74 23.2 59 15 60 60 SSW 20 31 29.74 1007 10 16.09344 N/A
4:55 pm 16:55 Cloudy 74 23.1 59 14.8 60 60 SSW 22 35 29.74 1007 10 16.09344 N/A
5:15 pm 17:15 Cloudy with Light Rain 70 21.1 60 15.3 70 70 SW 16 26 29.74 1007 10 16.09344 N/A
5:35 pm 17:35 Cloudy 69 20.4 60 15.8 75 75 WSW 8 13 29.74 1007 10 16.09344 N/A
5:55 pm 17:55 Cloudy with Rain 67 19.6 60 15.8 79 79 SW 9 15 29.74 1007 10 16.09344 N/A
6:15 pm 18:15 Cloudy with Light Rain 67 19.2 61 15.9 81 81 SSW 13 20 29.74 1007 10 16.09344 N/A
6:35 pm 18:35 Cloudy with Light Rain 67 19.4 60 15.3 77 77 S 8 13 29.71 1006 10 16.09344 N/A
6:55 pm 18:55 Cloudy 67 19.2 59 15 77 77 S 10 17 29.71 1006 10 16.09344 N/A
7:15 pm 19:15 Cloudy with Light Rain 66 18.7 59 15.2 80 80 S 10 17 29.74 1007 10 16.09344 N/A
7:35 pm 19:35 Cloudy with Light Rain 65 18.2 60 15.5 84 84 S 12 19 29.74 1007 10 16.09344 N/A
7:55 pm 19:55 Cloudy with Light Rain 64 17.7 60 15.7 88 88 S 10 17 29.77 1008 10 16.09344 N/A
8:15 pm 20:15 Cloudy with Light Rain 63 17.3 60 15.6 90 90 S 13 20 29.77 1008 10 16.09344 N/A
8:35 pm 20:35 Mostly Cloudy 63 17.2 59 15.2 88 88 S 15 24 29.77 1008 10 16.09344 N/A
8:55 pm 20:55 Cloudy 63 17.2 59 15 87 87 S 14 22 29.77 1008 10 16.09344 N/A
9:15 pm 21:15 Cloudy 63 17.1 59 15 88 88 S 14 22 29.77 1008 10 16.09344 N/A
9:35 pm 21:35 Partly Cloudy 63 17 59 14.9 88 88 S 10 17 29.77 1008 10 16.09344 N/A
9:55 pm 21:55 Mostly Cloudy 63 17.1 59 14.9 87 87 SSW 16 26 29.77 1008 10 16.09344 N/A
10:15 pm 22:15 Mostly Cloudy 63 17 59 14.8 87 87 S 13 20 29.77 1008 10 16.09344 N/A
10:35 pm 22:35 Mostly Cloudy 63 17 58 14.7 86 86 S 15 24 29.77 1008 10 16.09344 N/A
10:55 pm 22:55 Mostly Cloudy 63 17 58 14.6 86 86 S 12 19 29.77 1008 10 16.09344 N/A
11:15 pm 23:15 Partly Cloudy 63 17 58 14.3 84 84 SSW 15 24 29.77 1008 10 16.09344 N/A
11:35 pm 23:35 Mostly Cloudy 62 16.9 58 14.3 85 85 S 13 20 29.77 1008 10 16.09344 N/A
11:55 pm 23:55 Mostly Cloudy 62 16.7 58 14.2 85 85 SSW 14 22 29.77 1008 10 16.09344 N/A

Powered by AerisWeather